Location: Home
(42.5358°N, 72.7383°W)
Time: 14:28:35
(UTC-05:00)

Vanguard 3 - Pass Details

Date: 30 November 2021
Orbit: 508 x 3260 km, 33.3° (Epoch: 20 January)

Event Time Altitude Azimuth Distance (km) Brightness Sun altitude
Rises 01:42:17 0° 196° (SSW) 6,891 - -57.0°
Reaches altitude 10° 01:48:19 10° 184° (S) 6,088 - -56.0°
Exits shadow 01:55:13 20° 165° (SSE) 5,387 11.1 -54.9°
Maximum altitude 02:01:49 24° 140° (SE) 5,057 11.1 -53.8°
Drops below altitude 10° 02:14:16 10° 97° (E) 5,642 11.8 -51.7°
Sets 02:19:24 0° 84° (E) 6,305 12.3 -50.8°
